Tracking 22879 objects as of 21-Apr-2021
HD Live streaming from Space Station
objects crossing your sky now

DELTA 1 DEB

Track DELTA 1 DEB now!
10-day predictions


NORAD ID: 7198
Int'l Code: 1973-086FG
Perigee: 1,211.6 km
Apogee: 1,429.4 km
Inclination: 102.3 °
Period: 111.9 minutes
Semi major axis: 7691 km
RCS: 0.0332 m2 (small)
Launch date: November 6, 1973
Source: United States (US)
Launch site: AIR FORCE WESTERN TEST RANGE (AFWTR)

Note: This is SATELLITE DEBRIS
aabbcc
Your satellite tracking list
Your tracking list is empty




NASA's NSSDC Master Catalog

Two Line Element Set (TLE):
1 07198U 73086FG  21111.20410441  .00000184  00000-0  90641-3 0  9997
2 07198 102.3299 199.0508 0141582 335.7259  92.6366 12.87023496216238
Source of the keplerian elements: AFSPC